Theta_e
300 300 299 299 298 298 298 297 296 295 295 294 294 294 294 292 290 289 288 287 287 287 287 287 286 285 285 284 285 286 286 286 286 285 285 284 285 286 286 287 288 289 291
300 300 299 299 298 298 297 296 295 295 294 294 294 294 293 290 289 288 287 288 287 287 288 286 284 284 285 285 285 286 284 285 285 285 284 285 285 286 287 288 288 291 291
300 299 299 298 298 297 297 296 295 294 294 293 293 293 291 289 288 287 287 287 287 287 286 284 284 284 284 285 285 285 284 284 283 284 285 285 286 288 288 288 289 290 291
299 299 299 298 298 297 296 295 295 294 294 293 293 292 290 288 288 287 288 287 287 285 284 283 284 284 284 285 286 286 285 285 284 283 285 287 288 288 289 288 290 291 291
298 298 298 298 298 297 296 295 294 293 293 293 292 291 288 288 288 287 287 287 286 283 282 282 284 284 287 286 287 286 286 286 285 286 286 288 288 288 289 290 291 290 289
297 298 298 297 297 296 295 294 293 293 293 292 292 290 288 288 287 287 288 287 285 283 281 282 283 284 285 287 288 287 287 287 287 287 288 289 289 289 290 290 290 290 290
296 296 296 296 296 296 295 294 293 293 292 292 290 288 287 288 287 287 287 287 284 282 281 281 281 283 284 285 288 289 289 289 288 288 288 289 289 290 291 290 288 286 286
295 295 295 295 295 295 294 293 293 292 292 292 289 286 288 288 287 286 287 287 285 283 281 280 280 282 283 285 287 288 289 288 287 286 286 286 287 288 289 288 286 285 284
293 294 294 295 294 294 293 293 292 292 292 292 288 286 287 288 287 286 287 287 286 283 282 281 281 282 283 285 286 287 287 286 286 284 285 285 286 287 287 286 285 284 282
293 294 295 294 294 293 293 292 292 292 292 291 288 286 287 289 287 287 287 287 285 284 282 281 281 282 283 285 285 285 286 285 284 284 284 285 284 285 285 285 284 283 282
294 294 294 294 294 294 293 292 292 291 290 290 289 286 286 288 287 287 286 287 285 284 282 281 281 282 282 284 284 283 284 284 283 283 281 280 281 281 282 282 283 283 280
293 293 293 293 293 293 293 292 290 289 287 287 288 288 286 287 287 286 286 286 284 284 282 281 280 281 281 281 282 282 281 282 282 280 279 278 277 277 277 278 280 279 279
292 292 292 292 292 292 291 290 288 287 286 285 286 288 286 287 287 286 286 285 284 283 282 280 280 279 278 280 280 280 282 281 280 278 278 278 277 277 277 276 276 276 277
292 291 290 290 290 290 290 289 288 287 286 286 284 286 286 286 286 286 286 285 285 284 282 281 279 279 278 279 280 279 279 279 279 278 277 277 278 277 276 275 275 274 273
290 290 290 289 289 288 289 289 288 289 288 287 288 289 287 285 287 287 287 285 285 284 282 280 280 279 278 279 279 278 278 278 278 278 278 277 277 277 275 274 274 274 273
289 288 288 288 288 288 287 287 288 289 289 289 289 290 291 288 287 287 287 284 285 284 282 281 279 279 277 277 278 278 278 278 278 278 278 277 276 275 274 274 274 274 273
287 288 288 287 287 287 287 287 288 288 287 287 287 288 289 289 286 286 286 283 284 283 282 282 280 279 278 277 278 279 277 277 277 278 277 277 276 275 274 274 274 274 274
285 287 288 287 287 287 287 287 288 287 287 287 287 288 288 288 286 285 285 283 282 281 283 283 282 280 280 278 278 279 278 277 277 276 277 276 276 276 275 274 274 273 273
282 285 287 288 288 287 287 287 287 287 287 287 287 287 288 288 286 285 284 284 283 283 282 283 284 282 280 279 278 278 278 278 277 276 276 276 276 276 274 274 273 273 274
279 283 284 286 287 287 286 286 286 286 285 286 286 286 287 286 287 286 284 284 284 284 284 283 282 283 281 280 279 278 277 277 277 277 276 276 275 276 274 274 273 273 273
276 279 282 284 285 286 286 285 286 285 286 285 285 285 286 285 286 285 283 283 283 285 285 284 282 281 281 280 280 278 278 277 277 277 276 276 276 275 275 274 274 273 272
273 277 281 283 283 284 284 285 285 285 285 286 286 285 286 285 286 285 284 283 283 284 286 286 284 282 282 280 281 280 279 278 277 277 276 276 276 276 275 274 273 272 270
272 276 277 282 283 284 284 284 284 285 285 286 286 285 285 286 284 284 284 285 285 284 285 285 284 282 281 280 279 280 280 280 279 278 277 276 276 276 275 274 272 270 269
271 273 275 279 282 284 284 284 285 285 285 286 286 286 285 285 286 284 284 285 285 285 283 285 284 283 281 280 278 278 278 278 279 279 278 277 276 276 275 273 272 271 270
271 273 277 279 282 284 285 286 286 287 287 287 287 287 286 286 286 286 284 285 285 284 283 284 284 283 281 281 280 278 277 277 277 278 278 278 277 275 274 273 272 270 270
268 269 271 273 276 278 284 286 287 287 287 287 287 287 286 286 286 287 285 285 285 285 282 283 283 282 281 280 280 278 277 277 276 277 277 277 277 274 272 272 271 270 269
Wind_Speed
38 38 36 32 29 25 23 19 18 15 15 14 10 8 6 6 9 14 16 18 19 20 21 21 23 26 24 24 22 24 25 25 13 29 32 34 32 33 33 34 30 29 30
37 36 35 31 29 28 25 21 18 17 16 14 11 9 7 7 10 13 16 16 20 20 21 25 24 23 23 22 21 19 23 23 21 15 31 32 30 32 32 32 32 23 26
33 33 33 33 32 30 26 22 20 19 17 15 13 11 7 7 10 12 13 16 20 21 24 22 22 23 22 21 21 20 20 19 21 21 27 31 30 27 28 29 27 31 22
32 33 34 36 34 31 27 24 23 21 19 17 14 10 8 8 9 11 11 15 17 23 20 20 20 21 20 23 20 20 20 20 21 19 23 24 24 29 25 21 16 12 14
32 34 37 36 34 30 27 26 24 21 19 16 14 11 9 8 9 10 9 14 18 18 21 19 18 19 17 17 18 21 21 20 20 20 20 20 21 21 17 17 9 3 6
34 37 36 35 33 31 30 27 25 22 20 18 15 12 10 8 8 7 7 12 17 17 20 20 18 17 18 20 19 18 18 21 23 20 20 11 16 19 17 12 6 4 2
35 35 36 35 35 34 32 29 26 25 21 19 16 13 11 8 7 8 6 11 16 14 15 17 20 17 18 22 21 19 21 21 20 20 20 19 15 14 18 10 7 5 5
34 35 36 36 36 35 32 30 28 25 23 21 18 14 11 7 8 8 6 11 17 12 12 13 16 17 17 21 22 19 19 17 15 15 16 20 17 14 9 4 7 10 14
31 34 37 38 36 36 35 33 30 27 25 23 19 15 12 8 8 8 7 12 17 13 12 12 13 15 16 17 17 18 13 17 16 11 11 13 13 12 8 9 12 8 4
34 37 39 39 38 38 38 35 31 29 26 22 20 17 15 12 10 8 7 12 16 15 13 10 11 13 12 13 12 13 11 12 13 14 13 13 15 15 12 11 13 10 4
33 36 37 38 39 39 37 33 31 28 24 22 22 18 17 14 11 10 7 10 14 13 14 13 11 13 11 9 8 7 7 7 7 8 12 16 18 20 20 18 14 12 9
29 33 34 35 36 36 33 31 29 27 22 20 21 20 18 16 14 10 7 8 11 10 10 10 10 10 10 7 7 5 5 3 5 11 17 18 17 21 22 23 24 25 23
21 26 29 31 34 34 34 31 26 24 18 14 22 23 20 19 16 12 7 8 9 8 8 7 5 5 6 3 7 6 3 4 9 15 14 14 12 13 17 23 28 29 30
18 22 25 29 29 31 31 30 25 21 19 17 19 23 25 20 19 15 9 8 8 7 6 5 3 2 3 5 7 7 9 9 11 16 13 11 11 14 17 17 22 26 31
16 20 24 25 27 27 30 32 30 29 28 22 27 27 25 24 24 17 12 11 8 7 5 4 3 3 6 7 8 7 10 10 11 12 13 12 12 13 15 16 21 26 25
16 17 20 20 22 22 22 20 27 29 27 27 23 22 24 21 18 18 14 11 9 10 9 7 5 5 4 7 9 7 8 10 10 9 12 13 11 13 17 19 21 21 23
16 16 18 19 19 19 19 19 17 22 24 21 22 23 21 23 20 18 16 13 12 12 12 10 9 8 7 7 9 8 5 7 8 11 12 15 15 15 17 14 16 18 20
19 16 19 21 20 19 20 20 19 17 16 20 27 24 23 21 22 20 17 14 14 15 15 14 12 11 10 10 10 11 10 7 9 11 13 14 17 20 21 16 14 15 16
21 14 19 23 20 20 19 19 20 18 17 15 17 19 23 24 20 18 19 25 24 19 18 17 14 12 11 11 11 11 11 11 10 12 13 16 18 20 18 18 20 20 22
23 19 22 18 17 19 18 20 19 19 18 17 20 19 19 22 22 23 27 28 28 24 19 19 17 14 13 13 12 12 13 13 13 12 13 15 17 19 22 22 22 21 18
25 24 24 18 17 17 20 23 20 19 16 16 20 24 27 25 24 25 29 34 32 30 25 22 20 17 16 15 14 14 13 14 14 14 14 15 17 19 20 21 21 22 24
23 24 21 18 17 17 20 21 20 19 18 17 14 21 24 27 24 26 30 35 36 31 28 25 23 21 18 18 17 16 16 16 16 16 16 17 18 20 22 22 23 25 26
24 24 23 19 16 17 20 21 18 16 19 17 14 21 23 24 24 27 31 34 36 33 29 26 25 23 19 17 16 14 15 16 17 17 19 19 20 22 23 24 24 25 25
22 24 25 23 17 16 18 16 16 18 19 15 19 21 21 23 23 25 29 31 32 34 31 28 28 25 22 20 18 15 13 12 15 16 17 21 24 25 25 25 26 26 26
19 22 22 19 15 17 13 14 15 17 19 18 20 21 22 21 20 21 24 29 31 32 32 30 30 27 24 22 20 19 18 17 16 17 18 20 24 26 27 27 27 27 26
24 25 25 22 21 13 12 15 14 16 17 18 21 21 21 21 21 19 24 26 28 28 31 31 31 29 26 24 21 21 20 20 20 19 19 22 26 28 27 27 27 28 28
Wind_Direction
213 213 216 216 214 214 218 221 224 227 231 234 236 235 254 295 316 316 318 320 319 321 310 304 302 306 296 292 288 286 280 278 280 296 298 301 299 291 289 289 288 288 282
216 216 217 216 212 213 216 219 221 226 228 231 230 231 251 287 309 314 317 320 325 315 307 308 311 308 296 303 303 296 304 297 284 294 299 297 296 294 288 282 285 275 286
219 218 217 214 211 213 215 217 219 221 225 226 224 228 248 287 304 311 313 326 325 316 310 312 314 301 303 309 314 312 303 302 293 289 295 296 292 293 288 284 281 285 276
219 217 215 212 212 214 215 216 218 219 221 221 221 229 252 281 296 307 317 330 319 311 316 316 314 302 316 318 320 319 300 302 298 289 289 297 299 304 294 280 289 267 280
216 214 215 214 213 213 213 215 216 217 220 221 219 229 250 272 290 305 324 321 314 314 317 318 315 323 337 326 323 319 306 295 298 297 293 297 304 311 313 310 301 219 46
215 214 213 212 210 211 212 211 211 214 216 216 219 228 244 260 284 298 310 311 311 314 313 320 319 325 333 344 330 318 308 303 296 293 298 301 301 306 307 316 332 347 339
214 212 211 209 207 209 209 207 209 212 213 215 218 229 239 251 282 293 292 302 312 313 315 316 320 327 338 344 341 324 323 325 311 321 316 314 297 303 313 314 355 50 23
207 207 209 206 206 206 204 206 210 211 213 214 218 226 237 247 278 293 295 296 309 317 321 320 321 326 339 340 338 328 327 340 339 352 8 14 21 1 343 344 93 80 63
201 202 205 203 201 202 202 207 209 208 212 214 216 222 233 234 263 293 294 300 303 315 328 325 329 334 332 342 344 343 349 357 349 348 2 12 23 39 62 94 34 35 33
203 201 206 203 203 199 204 206 207 209 215 215 216 221 226 230 244 269 279 293 300 316 328 320 335 335 329 351 348 354 345 351 347 357 16 32 38 47 55 67 78 61 31
205 204 201 202 203 205 205 207 207 209 214 215 218 219 227 231 237 254 268 280 290 309 321 329 347 337 335 359 359 357 340 337 6 25 39 46 54 60 64 68 73 76 81
209 200 199 200 201 204 205 205 206 207 211 219 223 225 223 226 234 242 263 259 277 299 319 317 337 329 329 355 5 19 4 11 56 69 66 51 45 60 69 81 86 86 79
205 200 198 200 202 205 202 200 196 202 202 213 222 226 222 219 226 235 245 247 258 289 309 299 314 340 339 22 25 50 65 85 100 87 75 66 64 81 89 84 90 88 90
204 205 202 199 199 205 207 205 197 197 203 212 218 223 225 214 220 226 229 239 247 267 274 270 302 7 39 63 62 71 87 97 105 103 91 96 97 91 85 83 84 78 75
227 212 206 202 200 200 207 205 205 215 215 210 222 221 216 218 220 221 222 228 234 246 235 236 196 117 98 91 87 87 99 110 107 111 113 103 97 90 80 79 85 89 88
255 230 217 203 201 204 206 214 223 229 231 236 240 242 234 232 223 217 218 218 211 216 227 224 195 141 130 124 114 103 101 112 119 124 119 114 102 91 84 92 97 95 99
275 258 236 214 203 202 204 208 216 227 231 236 238 237 233 224 213 210 215 205 203 202 226 219 212 179 167 165 149 145 131 129 141 142 134 127 123 111 104 92 94 102 103
321 283 254 235 217 207 211 219 218 210 210 222 232 228 225 223 217 213 204 191 194 218 228 219 214 202 177 181 172 157 149 159 156 145 143 141 138 134 123 105 96 104 106
310 302 265 240 235 226 218 218 219 216 215 220 219 222 221 219 212 207 203 215 221 226 227 226 217 211 196 184 183 176 165 169 174 163 156 154 149 146 132 128 127 127 125
318 309 287 255 231 221 219 217 217 218 205 208 212 212 205 202 203 206 211 217 226 232 233 230 221 210 206 196 184 185 176 174 171 178 172 166 160 156 147 145 142 136 132
307 301 293 275 244 227 217 215 207 212 210 212 218 227 224 202 208 208 211 215 222 226 229 228 222 213 208 204 187 184 185 177 178 175 177 171 165 154 154 152 149 146 141
298 286 277 260 250 232 226 225 209 203 217 207 220 234 217 214 213 212 218 222 224 228 229 226 223 216 210 208 197 187 185 185 180 175 174 173 168 161 157 153 150 148 146
292 287 292 281 256 243 229 225 207 211 221 209 212 233 220 218 219 217 220 226 229 227 225 222 223 218 208 208 205 195 188 189 186 180 175 174 169 164 162 157 154 149 147
281 287 279 269 259 234 229 226 214 214 218 213 216 221 218 226 225 222 225 229 229 227 220 218 218 217 210 200 198 191 182 185 189 181 182 177 173 170 166 162 160 158 155
289 286 277 277 260 242 238 227 221 220 218 213 221 220 215 217 223 224 221 227 225 221 214 216 216 214 211 204 197 190 181 179 187 183 180 183 178 174 170 166 164 163 162
285 279 279 284 282 292 270 241 232 228 225 220 220 216 214 212 216 221 216 220 218 215 212 214 214 211 207 202 197 194 188 179 183 182 181 181 179 176 174 170 168 166 164